Location: Newark
(23.1300°N, 73.6109°E)
Time: 13:07:10
(UTC+00:00)

Envisat - Pass Details

Date: 29 July 2021
Orbit: 764 x 766 km, 98.2° (Epoch: 17 September)

Event Time Altitude Azimuth Distance (km) Brightness Sun altitude
Rises 23:23:39 0° 30° (NNE) 3,228 7.3 -15.8°
Reaches altitude 10° 23:26:22 10° 44° (NE) 2,299 6.7 -15.3°
Maximum altitude 23:30:26 24° 98° (E) 1,531 5.2 -14.4°
Drops below altitude 10° 23:34:29 10° 151° (SSE) 2,291 5.5 -13.6°
Sets 23:37:10 0° 165° (SSE) 3,214 6.1 -13.1°
